| time (UTC) | temp F | wind direction | speed MPH | gust MPH | rain 1hr in | rain 24hr in | rain mn in | humidity % | barometer mb |
| 20260905184004 | 83 | 206 | 10.0 | 15.0 | 0.00 | 0.00 | 0.00 | 50 | 923.8 |
| 20260905183003 | 82 | 210 | 6.0 | 12.0 | 0.00 | 0.00 | 0.00 | 52 | 923.8 |
| 20260905181004 | 78 | 279 | 0.0 | 0.0 | 0.00 | 0.00 | 0.00 | 63 | 923.8 |
| 20260905180004 | 76 | 280 | 0.0 | 0.0 | 0.00 | 0.00 | 0.00 | 68 | 923.8 |
| 20260905175004 | 74 | 273 | 0.0 | 0.0 | 0.00 | 0.00 | 0.00 | 73 | 923.8 |
| 20260905174004 | 70 | 18 | 0.0 | 0.0 | 0.00 | 0.00 | 0.00 | 75 | 923.8 |
| 20260905173004 | 67 | 309 | 0.0 | 0.0 | 0.00 | 0.00 | 0.00 | 66 | 923.8 |
| 20260905172004 | 66 | 181 | 0.0 | 0.0 | 0.00 | 0.00 | 0.00 | 44 | 923.8 |
| 20260905171004 | 64 | 48 | 0.0 | 0.0 | 0.00 | 0.00 | 0.00 | 33 | 923.8 |
| 20260905170004 | 63 | 51 | 0.0 | 0.0 | 0.00 | 0.00 | 0.00 | 29 | 923.8 |
| 20260905164004 | 61 | 342 | 0.0 | 0.0 | 0.00 | 0.00 | 0.00 | 34 | 923.8 |
| 20260905163004 | 60 | 342 | 0.0 | 0.0 | 0.00 | 0.00 | 0.00 | 33 | 923.8 |
| 20260905162004 | 59 | 342 | 0.0 | 0.0 | 0.00 | 0.00 | 0.00 | 36 | 923.8 |
| 20260905161004 | 58 | 343 | 0.0 | 0.0 | 0.00 | 0.00 | 0.00 | 39 | 923.8 |
| 20260905160004 | 58 | 343 | 0.0 | 0.0 | 0.00 | 0.00 | 0.00 | 41 | 923.8 |
| 20260905155005 | 58 | 289 | 0.0 | 0.0 | 0.00 | 0.00 | 0.00 | 42 | 923.8 |
| 20260905154004 | 57 | 289 | 0.0 | 0.0 | 0.00 | 0.00 | 0.00 | 42 | 923.8 |
| 20260905153004 | 57 | 289 | 0.0 | 0.0 | 0.00 | 0.00 | 0.00 | 44 | 923.8 |
| 20260905152003 | 57 | 289 | 0.0 | 0.0 | 0.00 | 0.00 | 0.00 | 46 | 923.8 |
| 20260905151003 | 56 | 289 | 0.0 | 0.0 | 0.00 | 0.00 | 0.00 | 47 | 923.8 |
| 20260905150003 | 56 | 289 | 0.0 | 0.0 | 0.00 | 0.00 | 0.00 | 47 | 923.8 |
| 20260905145003 | 56 | 289 | 0.0 | 0.0 | 0.00 | 0.00 | 0.00 | 49 | 923.8 |
| 20260905144003 | 56 | 289 | 0.0 | 0.0 | 0.00 | 0.00 | 0.00 | 50 | 923.8 |
| 20260905143004 | 56 | 289 | 0.0 | 0.0 | 0.00 | 0.00 | 0.00 | 50 | 923.8 |
| 20260905142004 | 56 | 289 | 0.0 | 0.0 | 0.00 | 0.00 | 0.00 | 51 | 923.8 |
| 20260905141004 | 56 | 288 | 0.0 | 0.0 | 0.00 | 0.00 | 0.00 | 52 | 923.8 |
| 20260905140004 | 56 | 288 | 0.0 | 0.0 | 0.00 | 0.00 | 0.00 | 52 | 923.8 |
| 20260905135004 | 56 | 288 | 0.0 | 0.0 | 0.00 | 0.00 | 0.00 | 53 | 923.8 |
| 20260905134004 | 56 | 288 | 0.0 | 0.0 | 0.00 | 0.00 | 0.00 | 53 | 923.8 |
| 20260905133004 | 56 | 289 | 0.0 | 0.0 | 0.00 | 0.00 | 0.00 | 54 | 923.8 |
| 20260905132003 | 56 | 288 | 0.0 | 0.0 | 0.00 | 0.00 | 0.00 | 55 | 923.8 |
| 20260905131004 | 56 | 289 | 0.0 | 0.0 | 0.00 | 0.00 | 0.00 | 56 | 923.8 |
| 20260905130004 | 56 | 290 | 0.0 | 0.0 | 0.00 | 0.00 | 0.00 | 56 | 923.8 |
| 20260905125004 | 56 | 290 | 0.0 | 0.0 | 0.00 | 0.00 | 0.00 | 57 | 923.8 |
| 20260905124004 | 56 | 290 | 0.0 | 0.0 | 0.00 | 0.00 | 0.00 | 58 | 923.8 |
| 20260905123004 | 56 | 290 | 0.0 | 0.0 | 0.00 | 0.00 | 0.00 | 59 | 923.8 |
| 20260905122004 | 56 | 290 | 0.0 | 0.0 | 0.00 | 0.00 | 0.00 | 60 | 923.8 |
| 20260905120004 | 56 | 290 | 0.0 | 0.0 | 0.00 | 0.00 | 0.00 | 62 | 903.1 |
| 20260905115004 | 56 | 290 | 0.0 | 0.0 | 0.00 | 0.00 | 0.00 | 63 | 903.1 |
| 20260905114004 | 56 | 290 | 0.0 | 0.0 | 0.00 | 0.00 | 0.00 | 64 | 903.1 |
| 20260905113004 | 56 | 290 | 0.0 | 0.0 | 0.00 | 0.00 | 0.00 | 65 | 903.1 |
| 20260905112004 | 56 | 290 | 0.0 | 0.0 | 0.00 | 0.00 | 0.00 | 65 | 903.1 |
| 20260905111004 | 56 | 290 | 0.0 | 0.0 | 0.00 | 0.00 | 0.00 | 66 | 903.1 |
| 20260905110004 | 55 | 290 | 0.0 | 0.0 | 0.00 | 0.00 | 0.00 | 67 | 903.1 |
| 20260905104004 | 55 | 290 | 0.0 | 0.0 | 0.00 | 0.00 | 0.00 | 70 | 908.4 |
| 20260905101004 | 55 | 290 | 0.0 | 0.0 | 0.00 | 0.00 | 0.00 | 72 | 892.6 |
| 20260905100004 | 55 | 290 | 0.0 | 0.0 | 0.00 | 0.00 | 0.00 | 72 | 892.6 |
| 20260905094004 | 55 | 290 | 0.0 | 0.0 | 0.00 | 0.00 | 0.00 | 73 | 892.6 |
| 20260905093004 | 56 | 290 | 0.0 | 0.0 | 0.00 | 0.00 | 0.00 | 73 | 892.6 |
| 20260905092004 | 56 | 290 | 0.0 | 0.0 | 0.00 | 0.00 | 0.00 | 73 | 900.3 |
| 20260905091003 | 56 | 290 | 0.0 | 0.0 | 0.00 | 0.00 | 0.00 | 73 | 900.3 |
| 20260905090004 | 56 | 290 | 0.0 | 0.0 | 0.00 | 0.00 | 0.00 | 73 | 897.2 |
| 20260905085003 | 57 | 290 | 0.0 | 0.0 | 0.00 | 0.00 | 0.00 | 74 | 897.2 |
| 20260905083003 | 57 | 290 | 0.0 | 0.0 | 0.00 | 0.00 | 0.00 | 74 | 876.4 |
| 20260905082004 | 57 | 290 | 0.0 | 0.0 | 0.00 | 0.00 | 0.00 | 75 | 876.4 |
| 20260905081004 | 58 | 290 | 0.0 | 0.0 | 0.00 | 0.00 | 0.00 | 75 | 876.4 |
| 20260905080003 | 58 | 290 | 0.0 | 0.0 | 0.00 | 0.00 | 0.00 | 75 | 876.4 |
| 20260905075003 | 58 | 290 | 0.0 | 0.0 | 0.00 | 0.00 | 0.00 | 75 | 876.4 |
| 20260905074004 | 58 | 290 | 0.0 | 0.0 | 0.00 | 0.00 | 0.00 | 76 | 876.4 |
| 20260905073003 | 59 | 290 | 0.0 | 0.0 | 0.00 | 0.00 | 0.00 | 76 | 876.4 |
| 20260905070004 | 60 | 290 | 0.0 | 0.0 | 0.00 | 0.00 | 0.00 | 76 | 888.4 |
| 20260905063004 | 60 | 290 | 0.0 | 0.0 | 0.00 | 0.00 | 0.00 | 76 | 887.0 |
| 20260905061004 | 61 | 290 | 0.0 | 0.0 | 0.00 | 0.00 | 0.00 | 77 | 848.8 |
| 20260905060004 | 61 | 290 | 0.0 | 0.0 | 0.00 | 0.00 | 0.00 | 77 | 848.8 |
| 20260905055004 | 62 | 290 | 0.0 | 0.0 | 0.00 | 0.00 | 0.00 | 77 | 848.8 |
| 20260905054004 | 62 | 290 | 0.0 | 0.0 | 0.00 | 0.00 | 0.00 | 77 | 848.8 |
| 20260905053004 | 62 | 290 | 0.0 | 0.0 | 0.00 | 0.00 | 0.00 | 77 | 848.8 |
| 20260905051004 | 63 | 290 | 0.0 | 0.0 | 0.00 | 0.00 | 0.00 | 77 | 848.8 |
| 20260905050004 | 63 | 290 | 0.0 | 0.0 | 0.00 | 0.00 | 0.00 | 77 | 848.8 |
| 20260905045004 | 64 | 290 | 0.0 | 0.0 | 0.00 | 0.00 | 0.00 | 77 | 845.3 |
| 20260905043003 | 65 | 290 | 0.0 | 0.0 | 0.00 | 0.00 | 0.00 | 76 | 849.7 |
| 20260905042004 | 65 | 290 | 0.0 | 0.0 | 0.00 | 0.00 | 0.00 | 76 | 829.5 |
| 20260905041004 | 65 | 302 | 0.0 | 0.0 | 0.00 | 0.00 | 0.00 | 76 | 845.0 |
| 20260905040003 | 66 | 290 | 0.0 | 0.0 | 0.00 | 0.00 | 0.00 | 76 | 845.0 |
| 20260905035003 | 66 | 286 | 0.0 | 0.0 | 0.00 | 0.00 | 0.00 | 75 | 845.0 |
| 20260905033004 | 67 | 283 | 0.0 | 5.0 | 0.00 | 0.00 | 0.00 | 74 | 845.0 |
| 20260905032004 | 68 | 288 | 2.0 | 9.0 | 0.00 | 0.00 | 0.00 | 72 | 854.6 |
| 20260905031004 | 69 | 306 | 2.0 | 12.0 | 0.00 | 0.00 | 0.00 | 71 | 852.2 |
| 20260905030004 | 69 | 287 | 2.0 | 10.0 | 0.00 | 0.00 | 0.00 | 69 | 852.3 |
| 20260905025003 | 70 | 317 | 2.0 | 12.0 | 0.00 | 0.00 | 0.00 | 68 | 852.4 |
| 20260905024003 | 70 | 300 | 0.0 | 3.0 | 0.00 | 0.00 | 0.00 | 66 | 850.8 |
| 20260905023003 | 71 | 305 | 0.0 | 10.0 | 0.00 | 0.00 | 0.00 | 65 | 848.6 |
| 20260905021004 | 72 | 304 | 3.0 | 12.0 | 0.00 | 0.00 | 0.00 | 64 | 848.6 |
| 20260905020004 | 73 | 309 | 1.0 | 10.0 | 0.00 | 0.00 | 0.00 | 64 | 863.9 |
| 20260905015003 | 74 | 342 | 1.0 | 12.0 | 0.00 | 0.00 | 0.00 | 63 | 858.7 |
| 20260905014004 | 74 | 296 | 3.0 | 12.0 | 0.00 | 0.00 | 0.00 | 63 | 850.3 |
| 20260905013004 | 75 | 318 | 5.0 | 12.0 | 0.00 | 0.00 | 0.00 | 62 | 851.3 |
| 20260905012003 | 76 | 290 | 4.0 | 12.0 | 0.00 | 0.00 | 0.00 | 62 | 861.8 |
| 20260905011003 | 76 | 304 | 2.0 | 12.0 | 0.00 | 0.00 | 0.00 | 61 | 856.6 |
| 20260905010003 | 77 | 293 | 3.0 | 12.0 | 0.00 | 0.00 | 0.00 | 60 | 856.6 |
| 20260905005004 | 78 | 311 | 5.0 | 12.0 | 0.00 | 0.00 | 0.00 | 59 | 856.6 |
| 20260905004004 | 78 | 299 | 2.0 | 14.0 | 0.00 | 0.00 | 0.00 | 57 | 848.6 |
| 20260905003004 | 80 | 293 | 6.0 | 14.0 | 0.00 | 0.00 | 0.00 | 56 | 849.0 |
| 20260905000003 | 83 | 302 | 6.0 | 14.0 | 0.00 | 0.00 | 0.00 | 52 | 847.9 |
| 20260904235004 | 83 | 298 | 3.0 | 13.0 | 0.00 | 0.00 | 0.00 | 51 | 855.1 |
| 20260904234003 | 84 | 314 | 5.0 | 15.0 | 0.00 | 0.00 | 0.00 | 50 | 855.1 |
| 20260904233004 | 84 | 279 | 7.0 | 14.0 | 0.00 | 0.00 | 0.00 | 49 | 855.1 |
| 20260904232003 | 84 | 298 | 7.0 | 13.0 | 0.00 | 0.00 | 0.00 | 49 | 855.1 |
| 20260904231004 | 84 | 273 | 5.0 | 16.0 | 0.00 | 0.00 | 0.00 | 49 | 855.1 |
| 20260904230003 | 84 | 265 | 2.0 | 14.0 | 0.00 | 0.00 | 0.00 | 49 | 855.1 |
| 20260904225004 | 83 | 272 | 5.0 | 14.0 | 0.00 | 0.00 | 0.00 | 49 | 859.1 |
| 20260904224004 | 83 | 222 | 7.0 | 16.0 | 0.00 | 0.00 | 0.00 | 49 | 880.3 |
| 20260904223004 | 84 | 235 | 9.0 | 16.0 | 0.00 | 0.00 | 0.00 | 49 | 880.3 |
| 20260904222004 | 84 | 223 | 8.0 | 15.0 | 0.00 | 0.00 | 0.00 | 47 | 880.3 |
| 20260904221004 | 85 | 271 | 2.0 | 10.0 | 0.00 | 0.00 | 0.00 | 47 | 880.3 |